Location: ???? ???? ?????
(31.2680°N, 31.7283°E)
Time: 09:21:29
(UTC+00:00)

Cosmos 2154 Rocket - Pass Details

Date: 13 July 2020
Orbit: 967 x 995 km, 82.9° (Epoch: 07 August)

Event Time Altitude Azimuth Distance (km) Brightness Sun altitude
Exits shadow 19:41:49 57° 209° (SSW) 1,128 4.1 -27.7°
Maximum altitude 19:43:06 76° 276° (W) 998 4.0 -27.9°
Drops below altitude 10° 19:49:20 10° 2° (N) 2,719 7.0 -28.6°
Sets 19:51:52 0° 4° (N) 3,672 7.7 -28.9°
